{"data":{"norad_id":60292,"intl_designator":"2024-132Q","name":"STARLINK-32149","alt_names":[],"object_type":"PAYLOAD","status":"ACTIVE","operator":null,"country":"US","launch_date":"2024-07-28","launch_site_code":"AFETR","launch_vehicle":null,"mission":null,"orbit_class":"UNKNOWN","rcs_meters":null,"size_class":null,"mass_kg":null,"dimensions":null,"purposes":["comms"],"wikipedia_slug":null,"has_3d_model":false,"image_url":null,"decayed_at":null,"tle_current":{"epoch":"2026-05-25T04:59:46.048704Z","epoch_age_seconds":50448,"freshness":"FRESH","line1":"1 60292U 24132Q   26145.20817186  .00106282  00000+0  34434-2 0  9990","line2":"2 60292  53.1612  57.1571 0001071  86.0342 274.0782 15.31180203103274","mean_motion":15.31180203,"eccentricity":0.0001071,"inclination_deg":53.1612,"raan_deg":57.1571,"arg_perigee_deg":86.0342,"mean_anomaly_deg":274.0782,"bstar":0.0034434,"rev_number":10327,"period_min":94.045103063548,"perigee_km":471.55624063811,"apogee_km":473.02360208467,"semimajor_km":6850.4269213614,"source":"CELESTRAK","updated_at":"2026-05-25T13:38:19.223737Z"}}}